CFG8LA EDDF-LOWW

Flight info

Callsign CFG8LA
Flight time N/A
Altitude 31000
Route CINDY8S CINDY Z74 HAREM DCT ASLEP DCT TAKUT DCT DINKU L603 BESNI L605 MIQ DCT ALUTU DCT BIBAG Q104 AKIMA DCT MASUR MASUR3W
Aircraft A321/M-SDE3FGIJ1LORVWXYZ/LB1

Departure

Time 2026-04-16 12:53
Airport Frankfurt Main Airport (EDDF)

Arrival

Time N/A
Airport Vienna International Airport (LOWW)
Time Latitude Longitude Altitude Speed Heading
2026-04-16 12:37 50.04468 8.56484 363 ft 0 kts 159°
2026-04-16 12:38 50.04471 8.56482 364 ft 3 kts 159°
2026-04-16 12:39 50.04496 8.56467 362 ft 4 kts 161°
2026-04-16 12:39 50.04522 8.56458 359 ft 4 kts 186°
2026-04-16 12:39 50.04537 8.56468 364 ft 1 kts 249°
2026-04-16 12:39 50.04531 8.56443 363 ft 4 kts 249°
2026-04-16 12:40 50.04522 8.56403 359 ft 4 kts 249°
2026-04-16 12:40 50.04518 8.56387 356 ft 0 kts 249°
2026-04-16 12:42 50.04518 8.56386 356 ft 1 kts 249°
2026-04-16 12:42 50.04510 8.56355 362 ft 4 kts 250°
2026-04-16 12:43 50.04497 8.56297 360 ft 7 kts 250°
2026-04-16 12:43 50.04476 8.56210 358 ft 10 kts 250°
2026-04-16 12:43 50.04452 8.56112 363 ft 9 kts 249°
2026-04-16 12:43 50.04424 8.56036 356 ft 7 kts 216°
2026-04-16 12:44 50.04381 8.56030 360 ft 6 kts 168°
2026-04-16 12:44 50.04336 8.56061 361 ft 8 kts 158°
2026-04-16 12:44 50.04284 8.56074 354 ft 8 kts 194°
2026-04-16 12:44 50.04256 8.56008 358 ft 9 kts 246°
2026-04-16 12:45 50.04228 8.55898 354 ft 12 kts 249°
2026-04-16 12:45 50.04201 8.55776 353 ft 12 kts 250°
2026-04-16 12:45 50.04173 8.55660 355 ft 11 kts 249°
2026-04-16 12:45 50.04145 8.55545 356 ft 11 kts 249°
2026-04-16 12:46 50.04119 8.55438 356 ft 10 kts 249°
2026-04-16 12:46 50.04097 8.55345 353 ft 8 kts 249°
2026-04-16 12:46 50.04079 8.55272 361 ft 6 kts 249°
2026-04-16 12:46 50.04068 8.55223 359 ft 4 kts 250°
2026-04-16 12:47 50.04057 8.55179 355 ft 6 kts 249°
2026-04-16 12:47 50.04039 8.55105 354 ft 9 kts 249°
2026-04-16 12:47 50.04014 8.54997 355 ft 11 kts 250°
2026-04-16 12:47 50.03985 8.54875 353 ft 13 kts 250°
2026-04-16 12:48 50.03951 8.54732 358 ft 15 kts 250°
2026-04-16 12:48 50.03913 8.54575 352 ft 16 kts 249°
2026-04-16 12:48 50.03874 8.54415 352 ft 16 kts 248°
2026-04-16 12:48 50.03815 8.54270 351 ft 16 kts 236°
2026-04-16 12:49 50.03774 8.54118 348 ft 15 kts 249°
2026-04-16 12:49 50.03737 8.53962 344 ft 15 kts 249°
2026-04-16 12:49 50.03700 8.53809 346 ft 15 kts 249°
2026-04-16 12:49 50.03663 8.53658 347 ft 15 kts 249°
2026-04-16 12:50 50.03627 8.53512 339 ft 14 kts 249°
2026-04-16 12:50 50.03593 8.53367 337 ft 14 kts 250°
2026-04-16 12:50 50.03559 8.53226 335 ft 14 kts 250°
2026-04-16 12:50 50.03525 8.53087 335 ft 14 kts 249°
2026-04-16 12:51 50.03492 8.52951 337 ft 13 kts 249°
2026-04-16 12:51 50.03455 8.52821 332 ft 13 kts 245°
2026-04-16 12:51 50.03423 8.52691 334 ft 13 kts 249°
2026-04-16 12:51 50.03378 8.52590 333 ft 11 kts 193°
2026-04-16 12:52 50.03299 8.52594 332 ft 15 kts 178°
2026-04-16 12:52 50.02985 8.52596 335 ft 80 kts 180°
2026-04-16 12:52 50.02221 8.52603 335 ft 136 kts 179°
2026-04-16 12:52 50.01122 8.52616 336 ft 177 kts 180°
2026-04-16 12:53 49.99904 8.52628 954 ft 170 kts 180°
2026-04-16 12:53 49.98704 8.52643 1485 ft 177 kts 180°
2026-04-16 12:53 49.97404 8.52922 1594 ft 203 kts 159°
2026-04-16 12:53 49.96188 8.54200 1794 ft 221 kts 133°
2026-04-16 12:54 49.95359 8.56234 2242 ft 228 kts 118°
2026-04-16 12:54 49.94610 8.58406 2873 ft 228 kts 117°
2026-04-16 12:54 49.94094 8.60758 3408 ft 235 kts 99°
2026-04-16 12:54 49.93964 8.63409 3713 ft 258 kts 92°
2026-04-16 12:55 49.93840 8.66251 4322 ft 267 kts 100°
2026-04-16 12:55 49.93244 8.68992 5074 ft 271 kts 119°
2026-04-16 12:55 49.92090 8.71313 5825 ft 273 kts 138°
2026-04-16 12:55 49.90557 8.73105 6463 ft 281 kts 145°
2026-04-16 12:56 49.88981 8.74998 7015 ft 292 kts 136°
2026-04-16 12:56 49.87714 8.77467 7534 ft 302 kts 121°
2026-04-16 12:56 49.86665 8.80363 8068 ft 313 kts 119°
2026-04-16 12:56 49.85588 8.83363 8599 ft 323 kts 119°
2026-04-16 12:57 49.84478 8.86446 9142 ft 331 kts 119°
2026-04-16 12:57 49.83341 8.89583 9805 ft 336 kts 120°
2026-04-16 12:57 49.82215 8.92787 10434 ft 341 kts 117°
2026-04-16 12:57 49.81126 8.96106 10960 ft 349 kts 116°
2026-04-16 12:58 49.80049 8.99513 11493 ft 356 kts 116°
2026-04-16 12:58 49.78973 9.02957 12016 ft 362 kts 116°
2026-04-16 12:58 49.77864 9.06495 12546 ft 369 kts 116°
2026-04-16 12:58 49.76724 9.10097 13069 ft 374 kts 116°
2026-04-16 12:59 49.75561 9.13731 13605 ft 380 kts 116°
2026-04-16 12:59 49.74375 9.17404 14129 ft 384 kts 116°
2026-04-16 12:59 49.73169 9.21123 14661 ft 388 kts 117°
2026-04-16 13:00 49.70725 9.28662 15718 ft 395 kts 117°
2026-04-16 13:00 49.69504 9.32421 16232 ft 398 kts 117°
2026-04-16 13:00 49.68260 9.36249 16765 ft 400 kts 117°
2026-04-16 13:00 49.67009 9.40099 17287 ft 401 kts 117°
2026-04-16 13:01 49.65754 9.43956 17801 ft 403 kts 117°
2026-04-16 13:01 49.64483 9.47843 18249 ft 407 kts 117°
2026-04-16 13:01 49.63202 9.51754 18693 ft 410 kts 117°
2026-04-16 13:01 49.61911 9.55688 19155 ft 412 kts 117°
2026-04-16 13:02 49.60607 9.59659 19545 ft 416 kts 117°
2026-04-16 13:02 49.59306 9.63619 19917 ft 420 kts 117°
2026-04-16 13:02 49.57976 9.67664 20304 ft 424 kts 117°
2026-04-16 13:02 49.56635 9.71737 20674 ft 427 kts 117°
2026-04-16 13:03 49.55280 9.75838 21048 ft 431 kts 117°
2026-04-16 13:03 49.53908 9.79975 21425 ft 434 kts 117°
2026-04-16 13:03 49.52550 9.84068 21798 ft 437 kts 117°
2026-04-16 13:03 49.51162 9.88249 22173 ft 439 kts 117°
2026-04-16 13:04 49.49764 9.92458 22505 ft 443 kts 117°
2026-04-16 13:04 49.48357 9.96692 22830 ft 446 kts 117°
2026-04-16 13:04 49.46938 10.00957 23156 ft 449 kts 117°
2026-04-16 13:04 49.45509 10.05251 23485 ft 452 kts 117°
2026-04-16 13:05 49.44085 10.09525 23814 ft 455 kts 117°
2026-04-16 13:05 49.42639 10.13862 24133 ft 457 kts 117°
2026-04-16 13:05 49.41182 10.18230 24460 ft 459 kts 117°
2026-04-16 13:05 49.39722 10.22603 24793 ft 461 kts 117°
2026-04-16 13:06 49.38253 10.27001 25102 ft 463 kts 117°
2026-04-16 13:06 49.36779 10.31407 25368 ft 465 kts 117°
2026-04-16 13:06 49.35295 10.35842 25654 ft 468 kts 117°
2026-04-16 13:06 49.33825 10.40233 25929 ft 470 kts 117°
2026-04-16 13:07 49.32326 10.44706 26250 ft 471 kts 117°
2026-04-16 13:07 49.30829 10.49172 26624 ft 471 kts 117°
2026-04-16 13:07 49.29328 10.53642 26996 ft 471 kts 117°
2026-04-16 13:07 49.27830 10.58103 27368 ft 470 kts 117°
2026-04-16 13:08 49.26335 10.62554 27748 ft 470 kts 117°
2026-04-16 13:08 49.24883 10.67035 28120 ft 469 kts 116°
2026-04-16 13:08 49.23497 10.71561 28488 ft 468 kts 115°
2026-04-16 13:08 49.22175 10.76038 28857 ft 467 kts 114°
2026-04-16 13:09 49.20851 10.80589 29129 ft 468 kts 114°
2026-04-16 13:09 49.19514 10.85157 29405 ft 469 kts 114°
2026-04-16 13:09 49.18161 10.89716 29681 ft 469 kts 115°
2026-04-16 13:09 49.16793 10.94256 29956 ft 470 kts 115°
2026-04-16 13:10 49.15435 10.98719 30224 ft 470 kts 115°
2026-04-16 13:10 49.14049 11.03240 30502 ft 470 kts 115°
2026-04-16 13:10 49.12659 11.07755 30778 ft 469 kts 115°
2026-04-16 13:10 49.11269 11.12276 30968 ft 472 kts 115°
2026-04-16 13:11 49.09873 11.16825 31011 ft 474 kts 115°
2026-04-16 13:11 49.07076 11.25945 31009 ft 474 kts 115°
2026-04-16 13:12 49.04268 11.35073 31009 ft 474 kts 115°
2026-04-16 13:12 49.01466 11.44113 31009 ft 475 kts 115°
2026-04-16 13:13 48.98638 11.53208 31010 ft 475 kts 115°
2026-04-16 13:13 48.95803 11.62306 31012 ft 475 kts 115°
2026-04-16 13:14 48.92965 11.71390 31014 ft 475 kts 115°
2026-04-16 13:14 48.90141 11.80401 31013 ft 474 kts 115°
2026-04-16 13:15 48.87291 11.89440 31013 ft 474 kts 116°
2026-04-16 13:15 48.84432 11.98471 31013 ft 474 kts 116°
2026-04-16 13:16 48.81566 12.07501 31013 ft 474 kts 116°
2026-04-16 13:16 48.78694 12.16530 31013 ft 474 kts 116°
2026-04-16 13:17 48.75828 12.25479 31015 ft 474 kts 116°
2026-04-16 13:17 48.72939 12.34474 31014 ft 474 kts 116°
2026-04-16 13:18 48.70537 12.41948 31014 ft 474 kts 116°
2026-04-16 13:18 48.67640 12.50928 31012 ft 474 kts 116°
2026-04-16 13:19 48.64737 12.59905 31341 ft 483 kts 116°
2026-04-16 13:19 48.63236 12.64523 31234 ft 493 kts 116°
2026-04-16 13:19 48.61736 12.69137 31254 ft 497 kts 116°
2026-04-16 13:20 48.58669 12.78552 31244 ft 498 kts 117°
2026-04-16 13:20 48.55594 12.87930 31257 ft 498 kts 117°
2026-04-16 13:21 48.52520 12.97248 31256 ft 498 kts 117°
2026-04-16 13:21 48.49439 13.06596 31268 ft 498 kts 117°
2026-04-16 13:22 48.46346 13.15949 31267 ft 498 kts 117°
2026-04-16 13:22 48.43327 13.25348 31264 ft 498 kts 111°
2026-04-16 13:23 48.41835 13.35431 31262 ft 498 kts 92°
2026-04-16 13:23 48.42196 13.45804 31259 ft 496 kts 83°
2026-04-16 13:24 48.42803 13.56173 31251 ft 496 kts 84°
2026-04-16 13:24 48.43380 13.66541 31250 ft 497 kts 84°
2026-04-16 13:25 48.43954 13.76859 31254 ft 497 kts 84°
2026-04-16 13:25 48.44530 13.87241 31256 ft 497 kts 84°
2026-04-16 13:26 48.45095 13.97641 31252 ft 498 kts 84°
2026-04-16 13:26 48.45646 14.08056 31221 ft 499 kts 84°
2026-04-16 13:26 48.45914 14.13213 30954 ft 500 kts 84°
2026-04-16 13:27 48.46187 14.18449 30687 ft 500 kts 84°
2026-04-16 13:27 48.46459 14.23689 30324 ft 501 kts 84°
2026-04-16 13:27 48.46729 14.28926 29879 ft 501 kts 84°
2026-04-16 13:27 48.46994 14.34137 29396 ft 497 kts 84°
2026-04-16 13:28 48.47254 14.39321 28811 ft 493 kts 84°
2026-04-16 13:28 48.47508 14.44384 28251 ft 488 kts 84°
2026-04-16 13:28 48.47760 14.49466 27691 ft 484 kts 84°
2026-04-16 13:28 48.48006 14.54523 27143 ft 480 kts 84°
2026-04-16 13:29 48.48247 14.59511 26606 ft 476 kts 84°
2026-04-16 13:29 48.48486 14.64476 26081 ft 472 kts 84°
2026-04-16 13:29 48.48720 14.69391 25561 ft 468 kts 84°
2026-04-16 13:29 48.48945 14.74204 25064 ft 464 kts 84°
2026-04-16 13:30 48.49171 14.79041 24567 ft 461 kts 84°
2026-04-16 13:30 48.49393 14.83843 24079 ft 457 kts 84°
2026-04-16 13:30 48.49612 14.88610 23540 ft 453 kts 84°
2026-04-16 13:30 48.49829 14.93346 22860 ft 451 kts 84°
2026-04-16 13:31 48.50044 14.98061 22200 ft 448 kts 84°
2026-04-16 13:31 48.50250 15.02683 21558 ft 445 kts 85°
2026-04-16 13:31 48.50454 15.07322 20919 ft 442 kts 85°
2026-04-16 13:31 48.50655 15.11934 20297 ft 438 kts 85°
2026-04-16 13:32 48.50766 15.16521 19684 ft 436 kts 93°
2026-04-16 13:32 48.50128 15.20967 19087 ft 433 kts 111°
2026-04-16 13:32 48.48920 15.25088 18677 ft 425 kts 115°
2026-04-16 13:32 48.47687 15.29101 18253 ft 420 kts 115°
2026-04-16 13:33 48.46461 15.33076 17844 ft 416 kts 115°
2026-04-16 13:33 48.45255 15.36966 17412 ft 412 kts 115°
2026-04-16 13:33 48.44045 15.40861 17005 ft 409 kts 115°
2026-04-16 13:33 48.42841 15.44729 16592 ft 406 kts 115°
2026-04-16 13:34 48.41643 15.48571 16185 ft 403 kts 115°
2026-04-16 13:34 48.40452 15.52381 15784 ft 400 kts 115°
2026-04-16 13:34 48.39286 15.56107 15392 ft 397 kts 115°
2026-04-16 13:34 48.38111 15.59851 14939 ft 394 kts 115°
2026-04-16 13:35 48.36939 15.63583 14432 ft 391 kts 115°
2026-04-16 13:35 48.35779 15.67268 13923 ft 389 kts 115°
2026-04-16 13:35 48.34623 15.70943 13362 ft 386 kts 115°
2026-04-16 13:35 48.33489 15.74546 12814 ft 384 kts 115°
2026-04-16 13:36 48.32350 15.78162 12275 ft 381 kts 115°
2026-04-16 13:36 48.31219 15.81747 11734 ft 378 kts 115°
2026-04-16 13:36 48.30093 15.85312 11211 ft 376 kts 115°
2026-04-16 13:36 48.28975 15.88851 10692 ft 373 kts 115°
2026-04-16 13:37 48.27872 15.92336 10385 ft 364 kts 115°
2026-04-16 13:37 48.26797 15.95729 10115 ft 355 kts 115°
2026-04-16 13:37 48.25751 15.99043 9819 ft 346 kts 115°
2026-04-16 13:37 48.24745 16.02232 9529 ft 338 kts 115°
2026-04-16 13:38 48.23753 16.05367 9413 ft 326 kts 115°
2026-04-16 13:38 48.22796 16.08379 9333 ft 313 kts 115°
2026-04-16 13:38 48.21868 16.11288 9137 ft 305 kts 115°
2026-04-16 13:38 48.20954 16.14142 8798 ft 302 kts 115°
2026-04-16 13:39 48.20051 16.16944 8461 ft 300 kts 115°
2026-04-16 13:39 48.19147 16.19747 8161 ft 297 kts 115°
2026-04-16 13:39 48.18255 16.22527 7882 ft 295 kts 115°
2026-04-16 13:39 48.17361 16.25291 7591 ft 294 kts 115°
2026-04-16 13:40 48.16471 16.28040 7324 ft 293 kts 115°
2026-04-16 13:40 48.15580 16.30789 7062 ft 292 kts 115°
2026-04-16 13:40 48.14704 16.33488 6796 ft 291 kts 115°
2026-04-16 13:40 48.13818 16.36212 6521 ft 289 kts 115°
2026-04-16 13:41 48.12938 16.38904 6342 ft 288 kts 116°
2026-04-16 13:41 48.11779 16.41325 6193 ft 287 kts 141°
2026-04-16 13:41 48.10098 16.42919 6077 ft 287 kts 154°
2026-04-16 13:41 48.08303 16.44259 6002 ft 287 kts 155°
2026-04-16 13:42 48.06527 16.45551 6010 ft 287 kts 155°
2026-04-16 13:42 48.04724 16.46849 6011 ft 287 kts 155°
2026-04-16 13:42 48.02925 16.48137 5992 ft 284 kts 155°
2026-04-16 13:42 48.01153 16.49403 5627 ft 281 kts 155°
2026-04-16 13:43 47.99382 16.50667 5221 ft 281 kts 155°
2026-04-16 13:43 47.97623 16.51919 4907 ft 277 kts 155°
2026-04-16 13:43 47.95893 16.53150 4616 ft 273 kts 155°
2026-04-16 13:43 47.94194 16.54363 4334 ft 268 kts 155°
2026-04-16 13:44 47.92574 16.55624 4075 ft 263 kts 142°
2026-04-16 13:44 47.91432 16.57663 3827 ft 254 kts 111°
2026-04-16 13:44 47.91148 16.60135 3645 ft 235 kts 79°
2026-04-16 13:44 47.91548 16.62413 3467 ft 220 kts 66°
2026-04-16 13:45 47.92340 16.64245 3297 ft 203 kts 40°
2026-04-16 13:45 47.93396 16.65479 3130 ft 183 kts 18°
2026-04-16 13:45 47.94553 16.65378 3036 ft 167 kts 333°
2026-04-16 13:45 47.95596 16.64691 2994 ft 163 kts 342°
2026-04-16 13:46 47.95968 16.64541 3011 ft 164 kts 342°